Overview Statistics Trail Chart Weather Telemetry Raw packets
 

This is the latest recevied weather packets stored in our database for station/object HB9DDE-10. If no packets are shown the sender has not sent any weather packets the latest 10 day(s).

<< 1 2 3 4 >>
Time Temp. Humidity Pressure Rain* Wind** Luminosity Snow
1788596845 21.67° C 78% 1024.3 hPa 0 mm - - -
1788596553 21.11° C 78% 1024.3 hPa 0 mm - - -
1788596263 21.11° C 77% 1024.3 hPa 0 mm - - -
1788595952 20.56° C 76% 1024.3 hPa 0 mm - - -
1788595661 20.56° C 77% 1024 hPa 0 mm - - -
1788595350 20.56° C 79% 1024 hPa 0 mm - - -
1788595044 20.56° C 81% 1024 hPa 0 mm - - -
1788594754 20° C 82% 1024.1 hPa 0 mm - - -
1788594445 20° C 82% 1024 hPa 0 mm - - -
1788594153 20° C 83% 1024 hPa 0 mm - - -
1788593863 19.44° C 82% 1024 hPa 0 mm - - -
1788593551 19.44° C 84% 1023.8 hPa 0 mm - - -
1788593260 18.89° C 86% 1023.7 hPa 0 mm - - -
1788592950 18.89° C 87% 1023.7 hPa 0 mm - - -
1788592644 18.89° C 85% 1023.6 hPa 0 mm - - -
1788592356 18.89° C 85% 1023.6 hPa 0 mm - - -
1788592045 18.89° C 84% 1023.6 hPa 0 mm - - -
1788591755 19.44° C 85% 1023.6 hPa 0 mm - - -
1788591445 19.44° C 84% 1023.4 hPa 0 mm - - -
1788591155 19.44° C 84% 1023.4 hPa 0 mm - - -
1788590844 19.44° C 84% 1023.3 hPa 0 mm - - -
1788590554 18.89° C 84% 1023.1 hPa 0 mm - - -
1788590262 19.44° C 82% 1023.1 hPa 0 mm - - -
1788589956 19.44° C 81% 1023.1 hPa 0 mm - - -
1788589644 20° C 79% 1023.1 hPa 0 mm - - -

* Rain latest hour (hover to see other rain measurements)
** Current wind speed in m/s (hover to see current wind gust speed)